Location: Ailly
(50.0793°N, 1.9944°E)
Time: 09:26:45
(UTC+00:00)

Lacrosse 4 Rocket - Pass Details

Date: 15 January 2026
Orbit: 512 x 564 km, 68.0° (Epoch: 15 February)

Event Time Altitude Azimuth Distance (km) Brightness Sun altitude
Rises 05:22:54 0° 167° (SSE) 2,655 5.1 -22.1°
Reaches altitude 10° 05:25:48 10° 144° (SE) 1,761 4.5 -21.6°
Maximum altitude 05:28:06 15° 108° (ESE) 1,460 4.5 -21.3°
Drops below altitude 10° 05:30:23 10° 72° (ENE) 1,756 4.8 -20.9°
Sets 05:33:16 0° 49° (NE) 2,643 5.4 -20.5°
